Regional Weather Roundup
Issued by NWS

Home | Current Version | Previous Version | Graphics & Text | Print | Product List | Glossary On
Versions: 1 2 3 4 5 6 7 8 9 10 11 12 13 14 15 16 17 18 19 20 21 22 23 24 25 26 27 28 29 30 31 32 33 34 35 36 37 38 39 40 41 42 43 44 45 46 47 48 49 50
000
ASUS43 KIND 250109
RWRIN

WEATHER ROUNDUP FOR INDIANA
NATIONAL WEATHER SERVICE INDIANAPOLIS IN
900 PM EDT FRI OCT 24 2014

NOTE: "FAIR" INDICATES FEW OR NO CLOUDS BELOW 12,000 FEET WITH NO
SIGNIFICANT WEATHER AND/OR OBSTRUCTIONS TO VISIBILITY.

* - STATION DOES NOT REPORT WEATHER SUCH AS PRECIPITATION OR FOG.

+ - STATION NOT QUALITY CONTROLLED BY THE NATIONAL WEATHER SERVICE.
    USE DATA WITH CAUTION...ESPECIALLY DEWPOINT AND RELATIVE
    HUMIDITY OBSERVATIONS.

INZ001>003-010>013-019-020-250200-
NORTHWEST INDIANA

CITY           SKY/WX    TMP DP  RH WIND       PRES   REMARKS
GARY /AIRPORT/ MOCLDY    57  50  77 CALM      29.97S
KNOX *+        PTCLDY    51  46  83 S5        29.98R
LA PORTE +     MOCLDY    51  49  93 CALM      29.98S
MICHIGAN CITY+ MOCLDY    50  50 100 CALM      29.98S
MONTICELLO +   FAIR      54  50  85 S3        29.99S
RENSSELAER +   MOCLDY    55  46  71 S3        29.99R
VALPARAISO     MOCLDY    51  46  83 CALM      29.98S

$$

LMZ046-743>745-250200-
SOUTHERN LAKE MICHIGAN

STATION/POSITION TIME  TEMP WIND        PRES
                       AIR  DIR/SP/G
                 (UTC) (F)  (DEG/KT/KT) (MB)
MICHIGAN CITY    0100   57  110/  7/  8   N/A

$$

INZ004-005-014>016-021>024-250200-
NORTH CENTRAL INDIANA

CITY           SKY/WX    TMP DP  RH WIND       PRES   REMARKS
ELKHART        CLEAR     50  46  87 CALM      29.99S
GOSHEN         CLEAR     49  45  86 S3        29.98S
LOGANSPORT +   PTCLDY    50  45  81 S5        30.01R
PERU/GRISSOM   PTCLDY    51  51 100 S7        29.99F
ROCHESTER +    PTCLDY    59  52  77 SW5       30.00R
SOUTH BEND     CLEAR     51  45  79 CALM      29.99S
WARSAW +       CLEAR     52  46  82 CALM      29.99S

$$

INZ006>009-017-018-025>027-250200-
NORTHEAST INDIANA

CITY           SKY/WX    TMP DP  RH WIND       PRES   REMARKS
ANGOLA *+      PTCLDY    48  46  93 CALM      29.98F
AUBURN +       PTCLDY    50  46  87 CALM      30.00S
FORT WAYNE     PTCLDY    51  48  89 S6        30.01S
HUNTINGTON +   CLEAR     55  50  85 S3        29.99F

$$

INZ028-029-035-036-043>045-051>053-250200-
WEST CENTRAL INDIANA

CITY           SKY/WX    TMP DP  RH WIND       PRES   REMARKS
GREENCASTLE +  PTCLDY    52  50  93 CALM      30.03S
LAFAYETTE      CLEAR     52  49  89 CALM      30.00S
TERRE HAUTE    CLEAR     56  50  80 CALM      30.02S

$$

INZ030>032-037>040-046>048-054>057-064-065-250200-
CENTRAL INDIANA

CITY           SKY/WX    TMP DP  RH WIND       PRES   REMARKS
CP ATTERBURY + PTCLDY    52  46  82 CALM      30.04F
COLUMBUS       CLEAR     52  48  87 MISG      30.04S
FRANKFORT +    PTCLDY    51  49  95 CALM      30.03S
INDIANAPOLIS   PTCLDY    56  49  77 S7        30.01F
-EAGLE CREEK   CLEAR     54  50  86 CALM      30.01F
KOKOMO *+      PTCLDY    52  45  76 S5        30.01S
MARION +       CLEAR     50  46  86 S5        30.01F
MT COMFORT *+  PTCLDY    54  46  76 S5        30.02F
SHELBYVILLE    PTCLDY    57  48  72 S7        30.02F
ZIONSVILLE +   CLEAR     51  47  86 S3        30.02F

$$

INZ033-034-041-042-049-050-058-059-250200-
EAST CENTRAL INDIANA

CITY           SKY/WX    TMP DP  RH WIND       PRES   REMARKS
MUNCIE         PTCLDY    56  50  80 S5        30.01F

$$

INZ060-061-067>069-081>083-085>088-250200-
SOUTHWEST INDIANA

CITY           SKY/WX    TMP DP  RH WIND       PRES   REMARKS
EVANSVILLE     CLEAR     57  52  83 CALM      30.05S
HUNTINGBURG *+ PTCLDY    57  48  72 SW3       30.06S
WASHINGTON +   CLEAR     53  51  93 S6        30.03S

$$

INZ062-063-066-070>080-084-089>092-250200-
SOUTH CENTRAL AND SOUTHEAST INDIANA

CITY           SKY/WX    TMP DP  RH WIND       PRES   REMARKS
BLOOMINGTON    PTCLDY    51  48  89 CALM      30.03F

$$




USA.gov is the U.S. government's official web portal to all federal, state and local government web resources and services.